Theta_e
314 314 314 314 313 313 317 319 319 320 322 322 321 320 319 318 319 322 326 330 331 332 333 332 332 332 332 333 334 335 333 328 324 322 322 329 334 335 332 322 320 317 315 317 316 317 319 321 323 322 323 324 326 328 324 326 328 330 334 329 327 331 332 334 329 327 329 322 322 323 324 328 325 324 322 320 324 323 326 332 332 333 336 337 336 335 336 337
314 314 315 315 313 312 315 319 319 318 321 322 320 320 320 318 319 321 324 330 331 331 332 332 332 332 333 333 334 334 329 324 322 321 326 334 334 332 333 326 320 317 315 317 316 319 322 324 322 323 326 326 327 326 325 327 327 331 334 329 328 333 331 327 321 321 322 320 322 322 322 327 326 324 322 321 323 323 326 329 332 338 339 336 336 337 337 336
313 314 314 315 315 313 315 318 318 317 320 322 320 319 321 319 319 322 324 328 331 331 331 332 333 332 333 332 333 331 324 321 321 322 328 333 332 332 333 327 320 317 317 317 318 319 322 323 321 325 330 328 329 327 327 327 326 332 333 330 331 332 329 322 318 319 319 319 320 319 320 323 323 322 321 323 324 323 326 329 333 339 340 339 336 335 336 336
312 312 313 315 315 315 315 317 318 318 319 321 320 318 322 321 318 321 323 326 330 332 332 333 332 332 333 332 333 328 321 323 323 324 329 331 331 331 329 326 320 318 317 316 317 319 320 321 321 326 329 330 332 328 328 328 328 330 329 332 334 328 326 320 317 319 319 319 319 319 319 319 319 321 322 323 324 323 324 327 333 338 339 339 336 336 336 335
311 311 313 314 315 316 316 315 317 318 319 321 320 318 321 321 318 320 323 326 330 332 333 332 332 333 332 332 332 324 322 330 329 327 330 330 331 330 326 324 322 318 317 317 317 319 320 321 323 327 329 332 334 329 329 327 327 328 326 330 331 325 323 319 317 319 319 319 320 319 318 318 318 319 322 323 324 324 322 322 327 332 337 338 336 336 335 335
312 311 313 313 314 316 316 316 316 318 319 320 320 318 321 321 318 318 321 326 330 332 333 332 332 332 332 332 329 322 325 333 329 327 330 329 331 331 326 323 322 319 317 318 318 320 322 322 325 329 329 331 333 333 332 325 325 330 329 327 325 324 321 318 318 318 318 319 320 318 317 317 318 318 320 321 323 324 320 321 324 328 334 337 335 336 335 335
312 312 312 312 313 315 316 316 317 318 319 320 319 318 320 321 318 317 319 325 329 332 333 332 332 332 331 329 325 322 326 329 325 326 327 328 332 332 329 324 321 319 318 318 319 322 325 324 327 330 330 331 333 334 332 325 324 329 330 327 325 325 320 318 319 317 318 319 318 317 317 317 319 318 318 319 322 323 320 320 322 324 332 336 335 336 335 335
312 312 312 312 313 314 315 316 318 318 318 320 319 317 320 320 318 317 318 323 328 332 333 333 332 332 330 325 322 324 326 327 325 326 326 328 331 333 331 325 320 319 318 318 321 323 324 323 326 330 331 332 334 334 332 330 327 327 330 329 326 324 320 318 318 317 317 317 317 317 317 318 319 318 317 319 321 323 319 321 326 326 331 336 336 336 335 334
312 312 312 312 312 313 314 315 317 318 317 319 318 317 319 319 318 319 319 322 328 332 332 333 332 331 329 324 322 326 327 326 325 325 327 329 328 329 328 323 320 319 319 320 323 325 327 329 330 333 334 333 335 335 333 335 333 327 328 329 326 321 318 317 316 316 316 316 317 318 318 319 319 317 317 319 320 322 320 325 331 330 331 336 337 335 333 333
312 312 312 312 312 313 314 314 316 318 318 318 318 318 318 318 319 322 322 324 328 330 331 332 331 330 328 323 324 329 328 325 325 325 327 327 324 324 323 322 320 319 319 322 325 328 332 334 332 332 334 335 338 337 336 339 336 326 325 328 326 321 316 317 317 316 317 317 317 317 318 319 318 316 318 320 319 321 321 323 327 330 331 333 336 336 333 333
312 312 312 312 313 313 313 314 316 318 318 318 318 317 317 318 321 324 325 326 327 328 330 330 330 329 325 322 326 329 326 325 326 325 327 326 323 322 320 320 320 319 320 324 327 327 330 329 327 330 332 334 335 336 339 340 334 326 325 327 326 322 317 317 318 318 317 317 317 317 318 318 317 316 318 321 319 320 323 321 323 328 330 330 333 335 333 333
312 312 311 312 313 313 313 315 316 318 318 319 318 317 318 319 322 325 325 326 327 328 329 329 329 328 324 323 326 326 326 326 325 325 326 324 324 322 319 318 319 320 323 326 327 327 328 326 327 332 330 331 335 337 343 339 331 329 327 326 324 321 320 318 318 319 318 318 318 318 321 320 317 316 317 320 319 319 322 322 322 324 327 328 330 332 331 332
312 312 311 312 313 313 314 315 316 318 319 317 316 317 320 321 322 323 324 326 328 329 329 328 327 325 323 325 325 324 325 325 324 325 324 323 323 321 319 319 320 322 324 326 326 326 328 326 329 333 328 333 337 332 335 330 327 330 326 328 326 321 323 321 318 320 318 318 321 322 327 327 321 317 317 318 319 319 320 321 322 322 324 325 327 330 331 329
311 311 311 311 313 313 314 316 317 318 318 316 316 317 319 320 321 322 323 326 327 328 329 328 327 324 324 326 323 323 324 324 324 322 321 321 321 320 320 320 321 323 324 325 325 325 328 326 328 333 331 333 332 327 331 329 329 332 327 331 334 329 331 327 319 320 318 318 322 324 327 329 327 324 320 317 317 318 319 319 321 322 322 322 324 327 331 328
311 311 310 311 313 313 314 317 317 318 317 316 316 316 317 318 319 319 321 324 325 326 327 327 325 323 324 326 323 322 323 324 325 321 320 320 319 321 321 322 323 323 324 325 325 326 326 326 331 338 336 329 328 334 337 332 330 331 331 335 337 334 337 332 321 319 320 318 319 323 325 326 326 326 326 320 316 317 318 318 319 321 322 321 321 323 329 329
310 311 311 311 313 313 315 316 317 317 316 315 315 315 316 316 317 317 319 320 322 324 326 325 322 322 325 326 324 323 323 324 325 322 321 320 319 322 322 324 324 324 325 324 325 325 324 328 332 332 333 333 335 338 335 332 332 331 334 338 337 335 336 335 327 320 320 319 318 320 325 328 329 327 325 319 316 317 317 318 317 319 321 321 320 321 325 329
311 311 311 312 313 313 315 316 316 317 315 315 315 315 315 316 316 316 317 317 319 322 325 323 320 322 325 323 323 325 324 324 324 323 322 320 320 322 322 323 323 323 323 323 324 325 325 330 330 328 332 336 337 334 333 336 335 331 334 338 337 336 334 335 332 322 319 320 319 320 322 325 330 329 325 319 316 317 317 317 317 317 319 321 321 322 324 329
311 311 311 312 313 314 316 316 316 316 315 314 315 315 315 316 316 315 316 316 316 319 323 324 320 324 326 322 324 326 324 324 324 323 323 321 321 322 322 323 323 322 323 323 324 326 326 326 329 332 334 334 334 334 335 336 333 332 334 336 336 335 334 335 334 326 320 320 321 321 321 320 323 327 326 321 316 317 317 316 317 316 317 319 321 323 324 327
311 311 311 312 313 315 316 316 316 315 313 313 314 315 315 316 315 315 316 316 317 318 323 326 322 327 329 323 325 326 323 324 324 324 323 322 322 322 322 323 323 322 323 325 325 325 325 325 328 333 334 333 334 334 333 332 330 332 332 334 336 336 336 334 332 327 320 320 322 321 321 320 321 322 324 324 318 317 318 317 317 318 319 319 320 322 323 326
311 312 312 312 314 315 316 316 315 314 313 314 315 314 314 316 316 316 316 316 317 319 323 325 323 327 327 323 325 325 324 325 324 324 323 322 323 322 322 323 323 323 324 325 326 324 324 327 330 331 332 332 331 330 330 330 332 335 335 335 335 334 336 333 330 329 322 322 324 323 323 322 321 322 322 324 320 317 318 318 318 318 320 320 320 321 323 325
312 313 313 313 314 315 315 315 314 313 314 315 315 314 315 316 317 317 317 316 317 317 320 320 321 324 324 324 325 324 325 327 325 324 323 322 322 322 323 322 323 325 324 324 325 323 324 328 329 328 329 329 329 329 329 331 333 336 337 337 337 335 335 330 327 328 325 326 328 328 328 326 324 324 324 325 323 319 317 317 319 318 319 320 319 320 321 322
312 314 313 313 314 314 315 314 314 313 314 315 314 314 314 314 315 316 315 317 317 317 318 317 318 320 322 323 325 324 327 328 328 325 322 322 322 323 323 322 324 325 324 323 324 325 327 329 328 326 327 328 328 328 327 329 332 336 337 336 337 336 331 325 322 323 323 327 332 330 328 327 325 325 325 326 324 322 319 317 318 319 319 319 319 318 319 320
311 313 313 314 314 314 314 314 314 314 314 314 313 313 313 313 314 313 316 318 318 317 317 317 317 318 321 325 325 325 328 329 329 326 321 322 323 323 323 323 323 323 323 323 325 328 329 328 326 326 327 327 328 328 328 330 334 338 339 335 336 335 332 327 321 318 320 324 327 324 323 323 321 322 323 322 323 323 322 320 318 319 320 319 319 318 317 318
312 312 313 313 313 314 314 314 314 314 314 313 313 313 312 313 313 313 318 320 319 318 317 317 318 317 320 324 324 326 328 328 328 326 321 321 323 322 323 323 323 323 323 323 324 327 328 325 324 325 326 327 329 329 329 333 337 339 338 336 336 335 332 328 321 318 320 322 321 321 326 328 324 323 323 321 322 321 321 322 320 320 320 320 321 321 320 319
313 313 313 314 314 314 314 314 314 313 313 313 313 313 313 314 314 313 319 320 320 319 315 317 321 319 318 322 325 326 328 328 327 325 320 320 322 323 323 323 323 324 323 323 324 325 325 323 324 326 326 327 329 329 329 333 338 339 338 334 333 334 329 324 323 321 323 329 327 323 331 339 336 330 327 325 325 323 322 321 320 320 321 322 322 322 322 322
313 313 313 314 314 314 314 313 313 313 313 312 313 313 313 314 314 313 319 320 320 319 316 318 322 321 321 324 325 325 329 330 326 323 321 321 322 322 324 323 323 324 323 322 324 325 324 323 324 326 327 328 329 330 330 331 334 338 337 332 332 334 329 324 326 329 332 335 330 323 331 341 336 331 331 329 327 327 326 323 322 320 320 322 321 321 322 323
312 311 313 314 313 314 313 312 312 313 313 312 313 313 313 314 314 313 317 318 319 319 319 320 321 322 324 325 325 327 331 329 326 324 321 322 323 322 325 325 324 324 322 323 327 327 325 324 326 326 328 330 329 330 330 329 333 336 335 332 333 333 331 329 330 333 335 333 326 323 327 333 332 328 328 330 327 326 326 324 324 322 320 320 320 320 321 321
310 310 312 313 313 313 312 312 312 312 312 312 312 312 313 314 313 313 317 318 321 321 321 322 322 322 325 325 324 327 329 327 327 327 321 321 324 323 326 325 324 325 322 325 330 329 325 325 327 327 328 329 329 331 331 329 332 334 331 332 333 333 334 334 333 332 331 330 330 328 324 329 334 329 325 327 327 326 326 324 323 323 322 321 320 319 320 319
310 311 313 312 312 311 310 311 311 311 311 312 312 312 313 313 313 315 318 319 321 321 321 323 322 323 326 326 325 327 326 326 328 326 322 323 323 323 326 324 323 325 323 324 329 328 326 326 326 326 329 329 329 332 333 332 331 328 327 330 331 332 333 334 335 335 333 333 333 329 325 329 336 333 327 327 327 325 324 324 324 323 323 323 321 320 319 319
310 311 311 309 309 309 309 310 310 310 311 311 311 311 312 312 313 318 320 320 322 321 320 323 324 325 327 327 327 327 326 326 326 324 323 324 324 325 327 324 324 326 325 326 327 326 325 325 325 327 328 328 328 331 333 333 329 327 328 328 327 330 334 336 337 336 335 333 331 329 326 328 334 336 329 325 329 329 325 325 326 324 325 324 322 321 319 319
310 310 309 307 308 308 309 310 310 310 311 311 311 311 312 313 314 318 319 319 322 322 321 324 326 328 329 328 329 328 327 326 324 324 324 324 324 326 327 326 326 328 328 328 326 323 324 327 327 327 327 327 328 329 328 328 327 328 330 329 328 330 333 335 333 333 335 332 329 328 327 326 331 336 331 325 328 330 326 326 328 327 327 324 322 321 320 320
310 309 308 307 307 308 309 309 310 311 311 311 311 311 313 314 315 319 319 319 321 321 321 323 326 329 329 328 329 328 328 327 324 324 324 325 326 325 326 326 327 330 331 329 326 323 325 328 326 325 325 326 329 328 325 323 325 327 328 329 331 331 331 333 329 328 332 330 325 323 324 326 327 331 331 325 324 325 325 325 327 327 329 328 326 322 321 321
309 308 307 306 307 307 308 309 310 311 310 310 311 312 313 314 316 319 319 318 319 318 318 320 324 328 329 329 329 328 327 327 325 324 324 325 326 326 326 325 326 330 331 328 326 325 326 328 326 325 325 325 327 328 326 324 324 324 324 328 333 330 330 333 329 328 331 329 323 321 324 326 325 327 328 323 321 323 323 325 327 329 332 337 334 326 324 325
308 307 306 305 306 307 308 309 310 310 310 310 312 312 313 314 317 318 317 316 317 317 317 318 321 326 329 330 329 328 328 328 325 325 325 326 326 327 327 326 325 327 328 327 326 325 328 329 326 325 326 326 325 326 327 325 323 323 325 329 332 330 331 332 329 329 332 327 320 320 326 329 330 332 327 321 320 320 321 326 328 328 331 337 333 326 327 328
307 305 305 306 306 307 308 309 309 310 310 310 311 311 313 316 318 318 316 314 314 316 317 318 319 323 329 330 328 327 328 328 326 325 326 326 327 327 327 326 325 324 327 328 326 325 328 329 325 323 325 325 325 326 324 323 324 324 327 330 331 331 335 334 329 329 330 328 322 322 328 331 329 327 322 319 320 320 320 323 324 324 327 330 329 326 328 327
306 306 306 306 307 307 308 308 308 309 310 309 310 312 313 315 315 316 316 313 313 315 317 319 318 320 328 330 328 328 327 327 327 326 327 326 326 326 325 325 324 323 326 327 326 325 327 328 324 321 322 323 325 325 321 324 327 325 326 329 327 328 334 333 327 323 323 326 327 324 327 329 325 322 320 320 323 322 319 320 320 322 325 326 327 328 330 330
306 306 306 307 307 306 307 309 308 308 309 309 311 312 311 311 311 314 316 315 314 315 318 320 318 318 326 329 329 329 327 327 327 327 328 327 326 326 325 325 323 323 324 324 325 325 326 327 323 322 322 321 323 324 321 324 327 325 326 326 323 325 330 331 328 323 322 326 328 324 324 327 325 325 325 322 325 324 321 320 318 319 323 323 324 328 330 330
305 306 307 306 306 306 307 308 307 307 308 308 311 312 309 309 308 309 313 314 315 316 318 321 318 316 322 325 326 328 327 327 328 328 328 328 328 326 324 325 323 322 322 322 324 324 325 326 323 323 323 321 321 324 324 325 323 324 326 324 325 329 328 328 329 328 325 326 330 327 325 326 325 326 325 321 323 324 322 321 317 317 322 322 322 325 326 327
306 306 307 307 306 306 307 307 305 307 308 308 311 312 309 308 306 305 307 312 316 318 319 319 316 314 317 320 324 327 327 327 328 329 328 328 328 325 323 325 324 322 321 320 323 323 323 326 323 321 322 322 323 324 326 325 321 321 324 322 326 330 327 326 327 328 328 326 329 330 327 328 328 325 325 324 323 323 322 321 318 317 320 320 320 322 324 328
306 306 307 306 306 306 306 306 306 306 307 308 310 310 307 307 306 304 305 310 315 318 318 318 316 315 316 317 318 322 325 328 328 329 329 327 326 326 323 324 324 322 321 321 323 322 321 326 325 320 319 323 325 324 325 325 321 321 323 322 324 324 324 327 326 328 331 328 331 331 325 331 335 325 321 323 323 323 323 322 320 317 318 319 318 319 324 328
305 306 306 306 306 305 305 305 306 306 307 309 309 308 307 306 306 305 305 308 313 315 315 317 317 316 316 317 317 316 321 327 328 328 329 327 326 327 324 323 323 322 322 322 323 322 321 323 323 320 319 323 325 323 322 324 321 321 323 323 323 321 322 327 326 327 328 326 332 332 324 333 342 326 317 319 320 321 322 321 321 319 318 318 317 319 323 326
305 306 306 305 305 304 304 305 306 306 307 308 308 307 306 305 306 305 305 307 311 312 312 314 314 314 313 314 316 313 316 324 328 328 329 327 326 326 324 322 322 321 322 323 321 321 323 322 321 320 320 321 321 320 321 323 321 320 322 324 324 321 321 325 326 326 324 322 327 328 324 331 338 327 319 319 319 319 320 320 322 322 321 320 321 325 329 330
305 305 305 304 304 304 304 306 306 307 307 307 307 306 305 305 306 306 305 307 309 310 311 312 313 313 312 310 313 314 314 320 325 327 328 326 324 325 324 322 322 322 322 323 322 321 323 321 319 319 319 317 319 319 319 321 321 320 321 323 324 322 320 324 327 327 326 324 323 324 323 329 335 330 322 320 320 320 320 320 323 326 325 323 326 332 334 332
303 304 304 304 304 303 305 306 306 307 307 306 307 306 305 305 305 306 307 306 307 309 310 311 312 312 310 308 311 313 313 318 324 325 326 327 324 325 325 322 322 323 322 323 323 322 323 321 319 320 321 320 321 321 319 319 320 321 321 320 322 321 321 325 326 323 324 326 325 326 325 325 330 331 324 322 321 320 320 320 321 326 325 323 325 330 332 330
303 303 303 302 302 303 305 305 305 306 307 306 307 307 305 305 304 304 306 306 305 306 308 310 311 310 309 309 311 311 310 314 321 321 322 326 325 325 325 323 322 321 322 324 322 322 324 321 319 322 323 324 325 324 322 320 320 321 321 320 321 322 322 323 323 321 323 325 323 324 324 321 321 322 320 320 321 318 317 316 315 318 320 322 324 327 330 331
303 304 303 302 302 303 304 304 304 306 306 306 307 307 306 306 305 303 304 305 305 305 307 308 309 310 310 310 312 313 310 310 314 316 318 322 324 325 324 324 323 321 324 327 323 322 325 321 319 321 323 324 325 324 322 321 320 321 322 321 320 321 321 321 323 323 323 323 321 322 323 320 319 319 319 321 322 321 318 315 315 317 320 324 327 328 329 329
304 303 303 303 303 304 304 303 304 306 306 307 307 307 307 307 306 304 304 305 305 305 306 307 307 309 311 312 314 314 312 311 312 314 315 315 319 324 324 323 324 323 325 326 322 322 325 322 319 321 321 320 323 323 321 321 321 321 321 321 320 320 321 322 323 324 323 323 323 322 321 320 319 319 321 322 321 321 319 316 316 318 320 325 327 327 327 327
305 303 302 303 303 303 303 303 303 305 306 307 306 307 307 307 307 306 305 305 305 305 307 308 308 309 310 311 314 314 314 314 315 315 314 314 317 323 326 324 324 323 324 324 323 321 322 322 321 321 321 321 322 323 321 320 321 320 320 321 321 320 321 322 322 322 322 323 324 322 321 321 318 317 319 319 319 319 317 316 315 314 318 322 322 323 325 327
303 302 302 303 303 302 303 304 304 304 306 306 306 306 307 307 307 307 307 306 306 306 308 309 309 308 308 308 311 314 315 316 317 314 313 315 315 318 326 326 324 324 323 323 323 322 322 323 321 320 322 322 322 322 321 320 321 321 320 320 320 319 320 320 320 321 321 322 322 321 322 321 319 318 317 316 319 319 315 315 316 316 318 321 321 322 324 324
303 304 304 303 302 302 303 303 304 305 305 306 306 305 306 307 308 308 307 307 308 308 307 309 309 308 307 307 309 312 311 312 315 313 311 314 313 312 318 319 318 323 325 323 322 323 324 324 323 321 322 323 321 322 322 321 321 321 320 320 320 320 319 320 320 320 321 321 320 320 322 321 318 319 318 317 319 319 315 316 319 320 320 321 322 323 323 321
302 302 302 302 302 302 302 303 304 304 304 305 306 305 306 307 307 308 307 307 308 308 307 307 309 308 307 308 309 310 308 306 309 308 307 311 311 308 310 309 310 318 325 323 321 322 324 325 322 322 323 323 321 321 321 321 321 322 321 320 320 320 320 320 320 320 320 321 321 321 322 320 318 319 320 319 319 318 316 317 319 319 320 321 323 323 321 319
301 301 302 304 304 302 302 303 303 304 304 304 304 305 306 307 307 307 308 307 307 309 308 307 308 309 309 309 309 309 308 306 307 307 305 305 305 304 305 305 305 311 318 321 322 321 323 325 322 321 324 324 321 320 320 321 322 322 321 320 320 320 320 320 319 320 320 320 321 321 320 320 320 320 319 318 318 318 316 315 316 318 318 317 318 319 317 316
Wind_Speed
31 32 33 36 37 37 35 34 36 35 33 32 31 30 30 33 35 33 32 36 36 33 29 28 29 29 27 26 25 25 25 24 20 18 17 23 31 27 26 24 12 14 19 16 15 13 9 6 7 8 4 1 0 1 1 1 2 3 3 3 3 3 3 3 3 2 4 4 4 4 3 7 3 0 1 2 5 4 6 5 3 6 7 7 15 26 31 31
31 32 32 34 38 38 37 35 35 37 34 32 33 30 29 34 35 33 33 36 36 36 34 29 30 29 28 27 25 26 24 22 19 17 25 30 28 24 25 27 16 14 19 17 19 16 9 6 8 6 4 1 2 1 1 1 2 2 3 3 4 4 3 3 1 2 3 5 5 4 4 5 5 4 2 2 2 4 6 3 4 7 6 9 18 26 29 30
32 32 33 33 36 37 38 36 34 37 37 34 35 32 29 34 37 34 33 36 34 36 37 31 31 30 29 27 24 25 21 15 11 16 31 29 24 25 25 29 22 15 18 19 20 18 12 11 10 6 4 2 2 1 1 1 0 2 3 2 5 3 2 5 2 3 4 6 6 3 3 4 4 4 3 4 5 5 6 4 4 6 7 8 13 21 26 26
32 33 33 33 35 37 39 38 35 37 39 36 35 34 31 33 36 35 34 36 35 36 38 34 32 31 30 27 26 26 17 6 7 19 34 29 25 27 26 30 28 19 17 19 18 15 13 14 11 7 4 3 2 2 3 3 2 1 3 4 5 1 2 4 5 2 4 6 7 4 4 4 2 3 3 5 5 3 6 8 9 11 13 11 11 18 23 23
32 33 34 34 35 36 39 39 37 37 40 37 35 34 32 32 35 37 35 36 38 39 39 36 34 33 31 29 28 27 15 2 7 24 36 31 30 29 27 29 30 24 18 18 16 12 12 12 8 5 3 3 3 2 4 5 4 2 4 6 5 2 2 3 4 4 2 4 6 5 5 2 2 2 3 7 5 5 5 8 10 13 16 16 15 18 19 19
32 33 34 35 35 37 39 40 38 38 41 38 35 34 33 32 35 38 37 38 40 41 41 38 36 35 32 31 32 29 15 4 7 21 34 33 33 31 29 28 29 27 20 18 14 9 9 7 6 5 3 3 5 4 4 5 5 3 4 5 6 3 4 3 1 3 3 4 5 4 2 2 3 1 3 6 6 6 6 6 9 14 19 21 20 18 16 16
31 32 34 36 36 38 40 41 39 38 40 39 37 35 34 33 34 37 38 39 40 43 43 41 39 37 35 33 31 23 13 9 3 9 24 33 35 32 31 29 27 25 22 18 11 6 6 7 6 5 5 4 5 5 5 6 6 5 4 4 6 4 5 5 4 2 2 4 3 3 2 2 4 2 1 4 7 7 6 4 9 16 21 21 18 16 17 18
31 32 33 35 37 39 41 40 40 40 40 40 39 37 35 34 35 37 39 39 40 43 44 44 42 39 39 33 22 11 10 13 8 3 18 33 35 32 32 30 28 26 24 19 11 7 6 8 8 5 6 5 4 5 6 6 6 7 6 4 4 3 5 5 5 3 2 3 2 4 2 2 5 4 1 5 8 6 6 5 9 14 16 16 15 15 16 17
32 32 32 35 37 39 41 40 40 41 41 41 40 37 35 35 35 37 39 39 40 41 42 45 44 41 42 30 14 8 15 19 11 7 18 31 33 32 32 31 31 27 24 18 11 8 6 6 8 5 5 5 4 4 6 7 5 7 7 5 3 2 6 5 5 4 3 3 3 4 2 6 4 3 2 7 8 6 6 7 10 12 13 13 12 14 15 14
32 33 33 34 36 39 41 40 40 40 41 41 40 37 35 35 35 37 39 39 41 40 40 45 44 44 41 25 12 10 19 23 15 16 23 29 32 33 34 32 33 30 24 19 10 7 6 4 4 3 4 0 3 3 4 7 4 5 7 5 6 4 6 6 5 5 3 2 4 5 5 6 3 2 4 7 7 6 7 7 10 12 12 13 11 12 15 15
32 33 34 34 36 39 41 41 40 40 41 39 38 36 35 35 35 36 38 38 41 40 39 44 47 48 37 21 13 8 19 26 19 25 30 30 36 35 34 34 34 34 27 19 11 10 12 8 3 3 3 1 1 1 3 5 3 5 6 5 6 5 5 6 6 6 3 2 5 6 3 4 2 3 6 6 5 7 9 8 9 11 11 12 12 11 13 15
32 32 34 35 37 39 41 42 40 39 40 38 37 36 34 35 36 36 36 36 39 38 36 42 48 49 32 14 13 9 21 29 23 32 34 32 37 36 34 35 34 35 31 20 12 13 14 11 8 5 1 1 2 2 2 4 2 3 5 4 6 4 4 6 6 5 5 3 5 5 3 5 5 6 7 7 5 7 9 8 8 9 9 9 10 9 10 14
32 33 33 36 38 40 41 42 42 41 39 37 37 34 32 34 35 35 35 35 37 37 37 40 43 42 25 7 13 15 21 28 30 35 37 34 34 31 30 30 27 28 30 23 15 14 14 12 12 7 1 1 3 1 3 4 2 3 4 4 4 3 4 6 5 5 7 4 6 6 2 7 8 9 10 9 7 8 8 8 8 8 8 8 8 8 9 13
33 34 34 36 40 42 43 43 44 42 39 38 36 34 32 31 32 32 32 34 34 34 37 44 45 35 17 4 12 22 21 27 36 38 39 38 32 26 24 23 20 19 23 24 19 15 14 13 12 6 2 2 0 3 3 2 1 4 3 2 3 3 4 6 6 8 6 4 6 8 4 8 6 9 11 10 8 9 9 9 8 7 7 7 7 8 8 11
33 34 34 37 41 43 45 44 42 41 39 39 37 33 32 30 30 29 29 31 30 29 35 44 44 28 10 3 8 24 25 25 36 40 40 41 33 24 22 22 19 18 20 21 19 15 15 13 9 4 2 1 1 3 1 1 0 3 3 1 3 4 3 5 7 11 9 3 5 8 4 8 6 9 11 7 9 10 10 8 8 8 8 8 7 8 8 9
33 34 35 39 44 45 46 44 40 38 38 39 37 33 32 29 28 28 29 29 24 27 33 31 32 24 7 3 11 23 23 23 35 40 41 42 36 27 27 26 21 20 19 18 19 16 14 11 5 1 2 1 2 3 1 2 2 3 4 3 4 4 3 4 4 10 11 5 4 7 5 5 5 8 9 6 10 11 10 9 9 9 9 9 7 7 8 8
33 34 36 40 45 47 46 43 39 38 37 37 35 31 29 26 26 26 26 29 24 26 29 23 27 21 4 5 14 18 17 22 35 38 37 39 38 35 32 22 15 20 18 16 18 13 8 6 2 1 2 2 3 3 4 5 5 4 3 3 4 6 5 2 3 5 9 8 7 9 8 8 6 6 6 4 9 10 10 10 10 9 8 8 8 8 8 8
33 35 39 42 45 47 46 44 40 37 35 34 32 29 28 24 25 23 18 22 19 16 19 19 23 13 2 8 13 16 19 23 34 36 34 35 36 38 31 18 14 18 15 9 10 7 3 2 2 2 1 3 5 5 6 5 6 6 5 4 4 5 6 6 4 4 9 9 8 9 9 12 11 7 6 5 7 9 10 10 9 8 8 8 8 8 8 9
34 36 41 46 47 47 46 44 41 36 32 32 30 28 26 21 18 16 16 18 14 9 8 8 14 6 5 14 15 20 25 27 31 32 33 32 33 32 25 20 17 15 11 5 5 6 5 3 2 4 6 7 8 9 8 4 6 9 8 8 6 5 5 7 5 6 12 9 8 11 10 12 12 9 8 7 6 8 9 8 7 8 7 7 7 8 9 10
34 36 41 45 48 48 46 44 40 35 32 32 33 27 17 13 10 8 11 12 9 11 7 3 11 6 7 15 18 22 25 27 26 25 34 36 34 27 16 15 13 9 10 10 8 7 6 6 7 10 11 12 12 12 11 5 4 9 8 7 6 5 4 5 5 7 12 9 9 12 10 11 12 10 9 8 8 9 9 9 8 8 8 8 8 9 10 11
33 36 39 41 44 44 43 43 38 35 35 37 36 19 7 11 9 5 10 6 7 14 11 4 8 8 1 15 27 29 22 21 20 22 36 38 33 24 12 12 13 8 9 11 10 7 7 9 13 14 13 13 14 11 10 9 5 6 8 5 4 6 5 4 5 7 9 7 7 8 9 12 11 9 9 8 9 10 11 11 11 11 11 10 10 10 11 10
34 35 38 39 39 39 38 38 36 37 38 38 32 12 7 18 14 9 14 7 9 15 10 6 7 11 5 16 34 39 21 15 18 18 31 33 25 19 13 14 14 11 10 11 9 7 8 12 13 13 11 11 12 11 12 12 8 5 6 5 4 5 3 3 3 1 5 6 4 4 7 10 10 9 10 9 9 10 11 13 14 13 13 11 11 11 10 9
38 37 39 39 39 39 38 37 38 41 39 33 26 13 10 20 21 18 15 5 6 10 8 10 9 7 7 12 26 35 21 16 18 16 28 30 18 16 17 15 14 12 13 13 12 10 9 9 11 12 11 12 12 12 14 11 7 4 4 4 4 4 4 3 3 2 1 3 1 1 4 6 6 8 10 10 9 9 10 14 14 13 14 14 13 11 10 10
38 38 39 39 41 40 38 40 40 40 38 33 28 21 15 19 26 25 12 1 3 3 5 11 8 8 12 14 23 29 18 18 19 20 30 28 16 13 15 15 15 13 13 17 16 12 6 5 12 13 12 14 13 13 14 9 6 6 5 5 4 4 5 4 2 1 3 3 1 3 5 6 6 9 11 9 8 10 10 10 12 12 12 11 11 10 9 10
36 39 39 41 41 40 41 39 36 36 34 27 23 22 20 20 27 29 11 3 4 1 3 8 5 10 19 20 24 21 14 14 16 21 27 26 20 14 10 11 11 12 16 18 15 9 6 9 14 15 13 14 13 13 14 11 7 7 7 8 7 3 4 5 6 5 3 4 3 3 2 7 4 7 11 6 6 10 9 10 13 11 9 9 9 10 10 10
38 38 41 43 39 42 38 23 25 34 25 15 19 23 26 23 24 27 11 4 5 3 6 10 6 12 20 16 15 15 13 11 12 21 26 27 25 16 12 8 5 12 17 14 9 4 5 11 15 15 14 14 12 11 13 12 8 6 6 9 7 4 7 8 7 5 2 4 4 3 4 6 5 5 8 5 5 8 8 10 13 11 9 9 9 10 11 11
38 35 38 42 42 44 27 10 24 32 13 10 25 28 27 27 24 20 8 2 6 4 7 9 6 15 18 13 15 16 13 10 8 14 22 26 22 13 14 12 7 11 12 9 5 4 10 15 16 16 15 13 10 9 11 12 8 4 5 10 9 6 8 8 7 4 3 2 4 1 3 4 7 5 5 6 7 9 10 11 11 11 12 13 12 12 13 14
37 35 35 40 47 41 20 16 28 19 9 21 33 30 29 33 26 13 5 5 5 5 6 6 7 15 14 12 19 14 12 20 14 10 19 26 19 9 12 16 14 14 14 13 9 7 14 16 17 18 13 11 9 7 10 11 7 4 4 8 8 6 7 6 6 3 0 2 4 3 3 2 7 6 4 4 7 12 14 13 11 11 12 13 14 15 15 15
38 37 36 39 41 29 16 21 22 11 20 35 35 33 36 34 20 5 3 6 2 3 4 6 8 12 10 11 17 12 13 18 13 11 19 22 11 3 9 16 17 17 16 14 8 6 12 14 16 16 11 10 8 6 9 12 7 4 5 7 4 4 5 5 5 3 3 1 6 5 4 3 6 6 5 2 6 12 14 10 9 11 12 13 14 15 15 13
43 38 36 36 30 21 18 18 16 17 30 38 34 33 32 23 9 5 7 6 2 2 3 6 8 11 15 15 13 14 17 11 9 14 11 7 5 5 5 9 8 14 12 7 6 5 7 10 10 10 9 9 8 6 7 10 8 5 7 8 7 5 5 4 3 5 2 5 6 8 7 4 5 6 5 5 6 10 9 7 7 9 11 12 13 13 13 11
45 39 36 33 26 26 20 11 16 26 32 37 35 25 17 8 3 8 9 1 3 3 4 6 9 14 21 19 10 14 18 11 14 19 9 5 5 3 7 6 1 9 9 5 4 3 6 10 8 6 8 9 10 7 1 5 10 8 6 6 5 3 5 4 4 3 3 6 3 8 9 7 7 7 5 8 9 8 8 7 8 9 10 11 10 11 11 10
42 41 39 32 28 28 20 15 27 34 35 40 31 13 6 4 4 6 4 1 2 4 4 4 9 17 25 23 14 17 17 12 17 21 14 14 11 8 14 12 7 9 9 8 7 4 6 9 8 6 7 11 13 7 2 4 8 8 6 7 6 1 1 1 1 1 5 5 2 5 6 6 9 6 6 13 12 10 9 8 9 11 10 9 9 10 9 8
41 41 36 29 28 25 21 27 36 37 38 35 20 6 4 4 5 4 3 2 2 2 3 3 4 14 26 23 15 18 16 14 20 21 18 18 14 14 16 16 18 13 9 13 11 7 5 3 7 9 6 10 15 10 6 6 8 9 9 9 8 4 3 5 3 1 4 5 2 4 4 3 7 4 10 20 19 12 9 9 9 9 8 7 8 8 7 7
41 36 28 25 25 20 24 33 37 39 37 23 9 6 6 5 4 4 4 3 2 2 2 4 3 8 24 23 14 17 14 12 22 21 18 18 14 14 13 13 20 12 8 13 8 9 10 3 8 13 6 10 16 12 9 7 6 7 6 7 7 6 5 6 4 3 4 4 3 2 3 5 4 3 10 17 16 10 7 8 8 7 6 5 4 3 5 6
36 30 25 23 21 21 29 34 35 36 27 11 6 7 7 6 4 4 5 3 3 3 1 5 4 3 16 19 14 19 12 10 23 20 15 17 14 15 15 14 20 13 10 12 6 8 12 5 7 9 4 13 16 7 7 10 5 3 3 6 6 5 5 3 3 5 4 1 2 3 4 4 5 6 9 9 11 8 7 8 7 8 6 4 5 4 5 6
30 25 22 21 21 25 31 32 32 29 17 6 5 5 3 3 1 3 6 4 5 7 5 6 4 1 10 13 13 20 11 8 23 19 12 16 15 17 18 14 21 20 15 14 7 8 11 6 8 7 2 12 15 10 11 12 7 2 4 7 5 4 6 2 2 0 4 2 3 3 5 5 3 8 10 10 12 10 7 7 8 9 7 6 6 6 7 7
25 18 13 14 20 25 28 29 29 22 10 4 4 3 1 0 2 2 3 5 5 8 7 6 4 2 6 7 11 20 12 8 19 16 11 16 13 17 19 13 18 22 18 15 7 6 8 3 4 7 5 5 7 12 11 7 6 6 7 8 4 4 3 3 2 1 2 3 4 3 7 5 3 6 6 8 12 12 8 7 7 7 6 7 8 7 8 8
22 14 8 10 18 23 25 27 24 14 5 3 3 2 2 1 2 3 2 2 4 5 6 5 3 1 3 3 7 17 15 11 16 13 12 12 9 15 20 14 16 20 17 15 7 4 8 5 3 4 7 4 4 9 8 3 1 6 6 7 6 3 4 4 3 3 4 4 4 4 6 5 6 6 2 6 12 12 10 7 6 7 7 8 9 8 8 7
19 10 4 9 18 22 24 24 16 8 3 3 3 2 1 1 1 3 5 2 3 5 5 4 2 1 2 2 4 12 14 14 16 14 11 10 8 16 21 13 14 19 16 15 10 6 9 7 1 3 3 7 5 6 10 6 1 3 5 6 5 3 4 5 4 3 4 4 4 4 3 4 8 7 6 9 11 11 12 9 8 9 9 9 9 8 7 7
10 5 4 12 19 22 25 20 9 4 2 2 2 1 1 1 2 3 5 3 2 2 3 4 3 2 2 1 0 4 9 13 17 14 10 12 12 17 22 16 14 19 16 12 10 8 6 5 5 2 0 6 8 7 13 15 8 7 9 9 7 4 2 2 3 3 4 4 4 4 5 6 6 5 11 14 11 12 13 11 9 9 9 11 9 8 7 7
4 5 4 14 23 24 21 12 3 3 3 1 2 2 2 1 0 3 6 4 2 1 1 4 4 2 3 2 1 1 3 8 15 12 8 14 14 12 19 20 18 19 16 10 9 9 5 4 8 7 4 9 11 6 8 14 13 10 9 10 10 7 4 4 5 4 4 4 4 5 6 8 5 4 9 12 10 10 11 10 9 8 9 10 9 8 8 7
5 5 6 19 28 23 14 5 1 3 2 1 3 3 3 2 2 2 5 4 3 2 2 4 3 2 2 2 2 3 1 3 11 11 7 14 17 12 19 25 23 22 18 11 11 9 4 5 8 7 5 6 5 1 1 7 11 7 4 6 7 6 6 8 8 6 5 4 2 3 4 7 6 4 5 8 8 8 8 9 8 8 8 9 8 8 8 8
6 6 11 23 24 15 7 3 3 3 1 2 4 3 3 2 2 2 4 4 3 2 2 3 2 2 1 1 3 3 2 2 7 11 8 13 17 12 19 27 24 21 17 11 12 8 4 6 7 5 3 2 3 4 5 2 5 5 3 5 8 10 10 8 5 5 6 7 4 3 6 8 6 3 2 3 4 6 7 8 8 7 6 6 7 8 7 7
6 5 7 13 12 5 3 3 4 4 3 3 4 4 3 3 2 1 2 3 2 2 3 2 1 2 2 3 3 3 1 1 4 7 5 10 12 8 17 26 23 20 16 11 12 9 4 6 9 8 5 1 2 0 2 1 4 7 10 11 13 16 14 7 3 3 4 7 8 7 8 7 4 4 3 5 3 3 4 5 6 6 6 7 7 6 6 6
6 4 4 4 3 1 1 1 3 4 4 4 5 5 4 3 3 2 1 2 2 2 2 2 2 4 4 4 3 3 2 1 1 2 3 5 6 5 14 25 23 19 15 12 13 9 5 8 10 11 12 10 10 12 11 10 10 9 12 16 17 19 19 12 6 5 6 6 8 8 10 6 3 4 4 6 4 1 3 2 2 3 5 6 6 6 6 6
5 3 3 3 1 1 1 1 2 4 4 4 4 4 4 3 3 2 2 2 2 2 3 3 2 3 4 4 4 3 2 1 1 2 4 2 2 2 14 23 22 20 16 14 15 8 3 6 11 12 14 14 13 9 7 9 11 10 13 18 18 17 17 13 7 9 10 5 4 8 11 8 7 7 5 6 4 5 4 3 4 4 5 5 6 6 6 6
3 3 3 4 2 2 1 2 2 4 4 4 3 3 4 4 4 2 2 1 1 0 2 2 2 2 3 4 3 3 3 2 2 1 2 3 5 2 14 20 19 21 17 14 16 10 4 8 14 15 15 13 9 8 10 11 13 15 15 18 17 14 13 13 12 13 10 5 7 12 13 15 15 10 7 9 7 5 6 6 6 6 5 6 5 4 6 7
3 3 2 4 3 3 2 1 1 4 5 4 2 4 6 5 5 3 1 1 1 0 1 2 2 4 5 3 2 4 5 3 2 1 1 1 5 3 11 16 17 21 16 10 11 8 5 10 14 15 15 12 9 12 14 15 14 15 17 18 19 18 17 17 19 18 13 10 13 19 19 21 19 11 11 11 7 7 8 7 6 5 5 5 5 6 7 8
4 3 2 4 3 4 5 3 3 5 6 4 2 3 6 6 5 3 1 2 3 0 1 2 3 4 5 4 2 3 4 3 3 2 1 1 3 3 6 9 11 16 15 10 9 5 4 9 12 13 13 10 11 14 16 17 15 15 18 19 20 21 22 21 22 22 19 15 19 23 22 22 20 14 12 9 7 7 7 4 5 6 7 7 8 8 9 9
4 3 2 4 4 5 5 4 5 6 5 3 2 2 4 6 5 3 1 2 3 2 0 3 5 4 4 3 3 3 3 3 3 3 3 4 2 3 1 2 2 7 11 10 7 4 4 8 11 11 10 8 10 13 15 18 18 18 19 20 19 19 20 21 20 20 18 18 23 24 20 20 17 10 8 8 7 7 4 4 7 9 8 9 8 9 10 10
3 4 5 5 4 4 4 3 3 5 4 3 2 3 3 5 5 4 2 1 3 4 3 4 6 3 3 4 3 3 3 4 6 5 4 5 4 1 1 3 5 2 8 9 6 3 5 6 8 9 8 7 10 14 15 16 17 17 17 19 20 19 19 21 22 21 19 19 21 20 18 18 10 5 7 8 8 10 10 10 10 9 9 10 11 12 11 10
4 5 6 5 4 3 4 3 3 3 3 1 2 2 3 5 6 5 3 3 3 5 5 5 6 3 2 3 1 1 3 3 4 5 4 5 6 4 3 1 4 2 3 6 6 5 7 7 7 9 10 10 12 13 12 11 10 11 15 21 25 25 24 22 20 21 19 16 16 16 18 15 6 7 9 9 10 13 13 11 10 10 11 11 11 12 11 10
Wind_Direction
247 244 242 242 241 239 234 232 232 230 230 232 232 231 225 222 223 222 223 223 219 218 221 219 215 215 209 207 209 216 214 201 200 191 198 213 210 208 199 191 173 174 180 178 184 184 192 215 230 217 187 236 236 152 238 105 93 67 98 169 226 239 231 248 255 207 160 150 181 216 148 130 153 122 146 63 61 96 91 66 56 47 44 88 128 144 149 151
248 244 241 240 239 238 235 231 230 230 230 231 233 233 226 222 221 218 220 222 220 218 219 218 215 212 207 206 206 211 207 198 200 200 212 219 211 206 200 192 177 172 179 176 180 181 178 202 224 206 143 150 219 144 295 286 98 113 132 168 214 210 241 274 206 136 121 153 166 168 131 128 166 164 133 135 155 136 103 64 65 73 65 96 123 139 147 152
247 246 243 239 238 237 234 231 228 230 230 229 233 234 228 225 221 216 218 220 219 217 215 214 213 209 207 203 201 202 193 192 207 217 219 218 209 203 198 193 181 173 181 180 182 185 184 192 207 189 141 187 210 144 160 237 244 160 134 168 231 222 315 330 360 110 134 154 138 127 112 106 163 153 127 164 167 161 151 150 117 122 144 134 136 144 150 155
246 246 243 239 237 234 232 232 228 227 229 230 233 233 229 228 221 216 216 216 215 213 209 208 209 206 205 198 196 190 174 198 231 222 220 213 207 200 192 194 189 183 183 185 187 192 197 197 200 182 158 212 215 138 167 212 207 176 154 179 227 174 52 330 331 18 109 133 133 134 97 87 157 132 140 143 133 214 209 188 174 167 165 157 153 155 158 160
246 245 242 239 236 234 233 232 229 225 226 229 232 230 226 227 222 216 216 215 214 210 204 203 204 203 201 195 191 177 157 252 210 215 222 211 206 197 188 195 194 193 188 187 194 199 211 204 191 171 165 201 186 146 196 208 165 179 216 206 220 119 106 262 310 347 27 106 116 111 102 137 154 107 162 137 143 225 223 204 186 168 165 165 163 162 164 166
245 244 241 238 235 234 232 230 228 223 224 227 229 227 224 226 221 217 216 213 211 209 203 200 200 199 197 192 185 172 166 220 168 206 220 209 206 198 187 191 192 195 191 192 201 202 212 206 186 175 175 198 197 196 205 195 162 196 246 228 226 155 142 219 227 322 344 85 109 121 143 152 98 4 228 155 183 218 209 203 177 169 170 166 162 162 167 173
243 242 240 238 234 234 232 228 225 220 222 224 226 226 223 224 220 218 216 212 210 207 202 198 197 195 192 183 177 178 190 225 187 197 210 202 203 198 191 191 189 189 188 191 199 198 198 194 196 176 172 203 209 212 201 185 171 191 234 234 230 188 163 180 168 246 15 91 138 135 104 108 137 196 246 190 225 226 210 185 151 164 165 160 160 168 176 179
242 240 238 237 234 233 232 228 223 219 220 222 226 226 222 222 221 218 216 214 210 205 202 196 192 190 186 174 166 191 213 222 240 176 189 195 195 192 190 191 189 186 182 188 198 203 196 195 203 174 176 203 207 211 191 179 181 193 213 221 234 207 170 163 155 176 103 118 115 85 97 223 190 173 184 226 243 229 195 128 125 147 152 161 171 177 182 183
242 239 237 237 234 232 230 227 223 219 217 220 225 223 220 220 220 218 215 214 209 206 203 195 191 187 183 174 162 210 210 207 218 169 177 188 185 182 182 182 186 182 174 183 201 208 193 198 209 170 164 205 217 227 192 189 210 198 194 202 223 171 160 157 147 168 166 151 105 91 246 265 229 175 234 237 233 215 165 124 129 142 153 173 179 182 185 186
242 238 236 236 233 232 229 224 221 218 215 219 221 219 218 218 217 216 211 209 207 206 205 197 190 183 179 173 172 212 200 194 194 170 173 179 175 173 173 176 180 177 169 175 184 184 156 145 210 142 97 183 229 232 199 200 207 182 182 204 213 175 163 165 161 180 182 176 157 158 233 268 256 206 243 253 231 188 153 146 150 151 166 180 181 188 189 190
240 237 235 234 231 229 226 220 217 215 213 216 217 214 215 215 213 210 206 205 205 206 208 198 187 181 175 172 191 206 181 184 186 173 170 171 171 169 170 173 174 171 166 166 164 153 126 105 123 117 102 66 259 231 222 216 190 169 178 212 228 198 177 171 165 181 174 203 187 165 242 279 284 229 223 248 232 172 165 173 165 163 175 184 186 189 189 195
239 236 234 232 229 225 222 217 211 211 210 211 212 210 211 210 207 206 204 203 203 205 205 193 183 178 171 177 208 177 166 181 179 172 171 168 171 173 172 172 172 171 166 154 141 143 121 92 93 98 160 212 120 157 263 252 216 151 154 180 222 204 205 198 174 173 168 203 181 134 328 274 229 231 226 233 209 167 169 177 180 180 183 186 190 190 192 198
239 236 233 230 226 222 218 212 206 206 206 205 205 204 205 204 202 202 201 199 199 200 200 192 180 172 163 184 208 178 170 179 172 168 170 166 168 173 175 174 171 172 167 146 118 129 123 86 84 90 2 52 123 210 299 268 187 121 132 132 169 188 246 221 183 161 170 189 154 129 298 255 227 229 228 225 194 162 173 185 193 193 190 194 193 192 199 197
237 236 232 228 223 219 214 207 202 202 203 203 203 202 203 203 201 200 197 196 194 195 200 194 180 170 170 190 192 189 185 176 171 166 165 164 157 157 168 173 169 166 161 141 114 117 119 84 74 83 41 56 355 316 335 303 127 129 147 104 147 183 252 232 185 159 170 201 144 133 237 253 245 240 235 225 187 171 188 198 201 200 198 202 198 196 201 198
235 234 231 225 217 213 208 202 200 201 202 202 203 204 205 206 206 204 201 196 192 191 194 190 177 164 176 239 180 189 185 173 171 167 166 162 149 145 152 154 155 158 155 142 125 116 112 87 64 67 33 11 352 18 37 271 217 144 155 199 208 193 251 254 202 175 176 214 154 141 225 265 259 247 247 221 177 182 198 208 209 208 206 205 206 202 202 203
233 231 229 221 213 208 204 199 199 202 203 203 204 204 204 208 209 211 209 198 188 183 182 182 175 160 157 202 161 176 184 179 173 168 169 165 153 148 143 136 136 142 144 139 133 120 106 89 60 55 49 51 71 66 171 206 204 194 161 182 210 198 233 278 241 195 172 150 188 188 219 270 262 251 255 205 178 188 200 214 215 215 214 207 209 207 205 205
231 229 224 215 208 204 200 197 198 200 202 200 198 198 200 205 205 207 209 199 189 183 183 181 175 166 141 144 150 168 183 178 171 165 167 167 158 149 142 134 126 128 124 126 136 124 101 95 101 164 58 93 117 123 204 196 188 196 163 184 226 204 198 221 258 211 160 146 195 217 229 241 250 280 284 210 183 187 201 215 216 216 218 212 211 209 207 204
228 226 218 209 204 200 196 195 195 197 197 194 193 195 194 193 193 191 185 182 177 182 201 195 177 171 166 170 157 168 178 169 165 162 163 164 157 150 146 138 127 124 113 111 137 130 110 106 114 142 114 165 163 171 198 196 175 170 169 199 233 208 191 201 222 182 161 170 195 208 233 244 250 277 289 253 196 189 206 215 217 220 219 215 214 212 210 204
227 222 214 206 199 195 194 192 192 193 193 192 186 178 174 169 175 180 162 160 161 176 218 197 182 178 139 170 162 163 172 163 159 159 159 158 152 147 141 136 135 132 131 138 157 148 138 113 123 188 203 198 190 190 196 192 169 173 183 198 203 199 209 212 220 185 167 177 210 208 222 242 250 254 256 261 228 205 215 218 222 227 224 219 213 214 214 209
223 216 209 203 195 191 192 191 190 189 187 182 167 154 155 154 160 186 169 168 186 203 222 175 192 204 119 153 152 149 161 160 157 159 161 159 149 141 133 136 139 142 156 158 158 159 151 157 194 204 202 200 198 193 197 218 192 179 192 209 201 194 231 225 216 202 170 172 221 217 220 239 245 248 241 239 232 225 225 223 227 227 227 227 218 216 214 213
214 205 201 199 194 191 191 190 189 185 181 172 160 153 168 171 172 173 158 176 218 214 240 255 222 261 147 156 154 149 155 162 164 162 163 160 148 143 148 153 153 170 174 149 136 142 163 193 208 204 196 197 201 189 194 232 236 192 199 210 209 200 228 243 218 203 173 179 235 228 228 243 245 250 245 229 222 225 224 221 227 227 226 230 225 222 217 217
206 197 194 193 191 191 191 191 188 182 177 170 166 174 194 185 192 168 156 187 210 204 233 242 257 294 259 180 165 156 152 161 164 162 162 160 153 156 163 165 170 175 160 138 132 150 189 212 202 189 185 185 194 186 192 226 235 213 209 196 213 207 207 296 301 216 166 190 252 251 236 249 254 255 250 236 224 223 221 219 222 224 225 228 226 224 218 216
204 197 193 192 190 191 193 192 186 179 173 169 175 187 190 195 199 178 162 184 200 193 216 214 232 265 239 213 171 156 152 159 163 169 168 163 162 167 164 169 174 160 154 161 166 175 198 210 177 166 172 171 179 186 192 219 232 219 212 188 219 205 181 246 288 335 147 184 197 329 281 266 257 263 258 242 232 229 225 223 224 222 222 224 222 220 211 207
200 196 195 193 191 192 192 188 182 177 173 172 180 184 177 183 184 173 157 124 209 202 210 204 209 214 226 223 177 162 162 165 165 171 173 166 157 161 165 169 167 158 171 176 174 183 189 152 153 161 173 173 174 185 190 201 218 222 217 204 221 202 189 195 174 118 7 347 21 42 324 283 234 246 256 245 236 239 232 230 235 231 228 231 230 225 214 206
192 192 194 191 192 192 186 181 178 174 173 175 181 182 174 167 170 170 153 36 223 256 204 190 186 213 223 219 189 168 155 167 170 169 172 167 155 153 166 171 167 168 176 173 172 190 183 144 154 167 178 180 179 185 191 189 197 224 222 212 212 182 152 138 127 105 41 311 285 105 295 283 252 241 254 255 247 247 241 235 239 237 230 231 235 231 224 220
188 190 192 189 190 184 177 176 174 170 170 179 182 180 178 169 164 169 152 22 230 210 171 171 165 199 206 209 188 156 152 177 175 166 167 166 159 153 161 170 175 175 170 165 171 191 173 161 163 173 179 182 188 191 191 184 182 219 212 194 195 132 120 143 141 127 159 246 263 148 192 269 297 265 253 257 255 256 251 242 241 240 234 226 223 224 222 223
182 182 184 186 183 174 168 159 163 167 166 177 176 174 177 173 167 170 161 302 226 160 147 161 162 182 185 184 172 160 158 150 147 175 170 160 158 152 160 168 173 173 158 151 186 189 165 169 171 176 180 184 196 194 187 179 175 225 200 174 178 136 135 159 150 166 203 241 304 331 150 260 283 260 239 238 252 265 256 245 240 232 231 230 226 222 220 219
173 169 169 174 173 167 161 149 154 164 165 159 161 159 163 166 167 170 177 223 199 119 148 164 152 170 175 179 180 173 144 139 147 192 174 158 154 151 167 175 172 165 160 165 187 171 160 174 177 172 179 193 195 180 172 172 180 231 194 170 179 152 145 151 135 158 40 36 274 258 136 230 268 272 273 238 244 263 256 243 238 231 226 226 227 225 223 221
168 163 158 159 161 158 156 154 153 157 153 150 149 149 150 153 155 150 202 220 174 81 177 165 149 164 168 180 186 174 147 153 160 171 171 162 146 122 170 175 167 159 168 177 173 153 162 178 176 166 180 196 185 170 170 176 195 211 136 106 91 94 95 100 118 112 54 310 236 205 168 226 262 265 266 229 229 253 257 247 235 231 228 225 224 226 225 222
165 163 158 154 153 156 158 158 161 155 148 147 146 146 144 139 140 173 200 208 110 85 196 174 163 159 164 181 189 170 159 159 145 146 165 155 82 31 128 148 153 153 165 168 147 156 158 162 169 171 188 183 165 182 187 177 170 131 101 82 66 51 48 52 60 78 76 265 224 178 180 208 264 263 234 210 218 235 246 252 245 235 233 230 224 225 223 217
162 164 164 162 161 162 158 147 159 158 152 150 147 143 141 132 158 190 196 208 73 167 197 176 163 156 169 182 182 167 162 150 147 150 151 133 105 70 126 130 143 151 155 143 143 166 140 153 174 180 179 158 156 188 207 151 154 124 102 109 96 31 18 27 14 57 204 248 214 180 178 183 233 255 237 233 230 229 235 234 240 239 234 233 226 224 222 212
160 161 163 165 162 162 161 153 157 157 153 151 146 140 144 149 202 195 181 40 89 186 194 171 166 165 174 181 177 169 160 147 157 158 157 159 155 162 166 171 172 157 160 161 162 168 154 171 178 161 169 160 162 175 70 129 161 133 128 142 135 101 33 177 245 196 224 249 240 180 161 190 236 243 256 258 244 229 232 225 230 236 234 236 229 225 223 208
156 156 157 161 159 159 163 157 156 155 153 150 144 144 157 175 200 172 137 164 152 158 166 163 177 172 174 180 181 169 157 154 163 162 164 164 161 174 180 177 172 171 167 163 164 164 165 209 183 167 175 170 169 171 162 178 176 156 157 162 160 148 157 204 212 240 249 264 258 160 141 237 263 239 235 248 248 234 224 225 229 226 221 228 228 219 207 197
152 151 149 154 156 159 160 157 157 156 154 152 147 157 178 200 183 129 141 184 128 89 141 168 189 187 179 181 178 166 160 162 164 163 167 166 164 177 182 179 181 178 148 159 171 166 170 230 187 175 176 174 178 179 162 146 152 164 150 143 165 167 173 196 189 199 229 266 273 185 163 199 212 230 227 237 256 260 231 229 237 239 228 208 199 180 166 182
149 147 144 143 144 149 154 156 159 157 153 146 145 163 191 197 171 155 169 157 129 117 70 166 179 217 185 181 177 174 173 162 162 164 172 171 171 177 173 177 185 177 150 163 174 167 178 210 181 176 178 172 176 169 124 118 135 209 121 134 189 181 147 151 184 187 170 181 255 209 228 212 199 273 272 257 276 279 238 233 235 245 246 177 162 173 170 183
138 137 138 132 131 143 151 155 158 157 147 126 144 171 203 190 186 190 167 145 158 151 127 158 170 249 194 181 177 182 185 165 162 162 174 176 178 182 176 177 182 178 169 167 163 170 181 186 170 163 169 181 173 156 156 157 157 174 163 174 194 136 118 130 239 175 104 197 243 193 243 288 307 280 267 253 268 271 244 232 222 226 225 190 190 197 195 198
127 128 126 117 131 145 150 152 153 149 135 131 167 177 123 36 316 300 155 151 159 146 141 168 168 179 199 185 178 178 170 162 168 164 169 175 179 183 179 181 185 183 177 168 168 182 163 139 188 167 150 193 163 141 163 178 140 141 182 180 121 72 102 130 219 338 100 225 265 215 229 270 295 268 259 233 244 256 249 233 227 227 209 204 215 211 211 210
123 121 100 106 136 147 149 150 146 129 101 141 184 183 98 57 303 331 355 145 151 139 150 173 157 156 204 196 186 177 161 162 175 167 164 172 175 177 176 181 190 189 180 163 156 170 146 106 309 218 155 150 105 123 154 238 135 146 171 163 134 160 200 164 179 208 192 227 278 262 239 235 223 230 252 226 229 242 253 239 223 222 204 210 223 220 223 223
123 117 91 129 142 145 147 146 136 104 80 158 179 200 141 96 290 322 332 295 171 152 157 158 123 145 210 189 189 184 173 171 175 168 168 176 171 174 178 179 185 189 183 164 156 167 158 137 199 264 171 151 147 152 172 197 315 91 140 168 166 175 186 177 176 164 171 214 259 283 277 239 228 207 193 221 222 222 239 239 220 211 204 211 221 218 218 216
127 109 106 145 145 144 143 137 121 110 144 167 146 143 112 96 264 301 316 297 169 146 169 161 147 148 174 167 221 204 192 180 175 173 175 176 166 173 182 179 175 183 180 165 158 158 154 145 152 170 21 162 176 196 186 182 175 161 174 185 183 169 134 165 188 144 140 179 216 255 266 255 247 198 194 215 217 207 218 226 222 212 207 215 220 213 209 209
132 98 120 151 145 142 137 123 110 157 151 157 130 117 122 126 221 321 318 318 63 49 94 129 138 138 137 147 52 349 232 194 183 179 174 178 174 173 184 180 170 173 172 161 162 164 160 158 153 152 175 185 188 203 195 186 183 181 187 185 181 175 138 158 212 202 167 179 179 195 250 265 256 210 204 214 215 210 208 210 219 216 210 218 222 213 206 201
120 96 137 153 147 142 134 105 123 148 116 151 129 111 130 119 57 346 319 331 54 44 32 80 113 111 100 133 89 62 359 217 194 189 175 182 187 183 181 179 170 170 172 166 170 167 119 115 140 147 169 183 188 251 310 183 177 169 187 183 171 170 161 182 211 203 188 217 182 159 263 277 258 239 234 226 219 214 204 198 211 222 216 216 217 211 205 201
103 94 134 151 152 149 138 115 134 135 120 131 104 92 122 103 57 6 341 355 37 49 54 82 124 115 89 137 106 93 42 323 213 203 185 184 194 188 174 174 168 168 173 169 169 162 81 104 128 112 99 45 19 357 7 65 150 153 188 179 170 190 194 192 198 172 187 220 203 199 255 264 265 275 285 263 220 196 199 195 197 211 214 204 196 189 187 191
108 88 118 149 160 158 143 149 151 152 152 129 114 123 124 77 81 119 10 17 23 55 105 121 117 108 127 133 108 109 111 339 244 223 207 194 195 172 166 172 169 171 182 176 170 176 159 153 143 127 141 102 42 264 320 328 188 189 198 194 188 195 193 186 170 149 211 221 185 193 238 243 279 323 5 6 27 150 193 203 185 186 194 194 189 186 186 184
116 80 68 122 155 116 98 167 150 151 150 136 128 130 119 76 80 105 71 61 33 45 107 101 83 104 120 123 102 95 100 55 266 307 325 213 191 138 166 176 174 179 189 171 160 169 159 160 160 157 169 176 179 192 196 193 194 193 194 195 195 194 190 190 192 191 227 219 166 194 236 240 304 318 327 344 349 195 232 256 220 207 204 199 195 198 197 186
118 111 110 114 71 41 15 330 114 137 147 133 122 122 119 116 116 91 56 79 49 37 64 60 73 96 115 127 116 110 105 69 123 7 352 269 234 148 171 178 179 183 181 154 148 148 114 168 183 182 185 187 185 182 155 154 175 184 187 191 196 197 191 188 197 209 216 206 171 222 244 245 242 241 259 283 260 230 241 242 238 242 230 218 210 206 201 197
99 115 133 132 129 119 66 336 89 131 155 138 127 139 130 127 139 122 15 55 176 35 61 66 76 92 131 148 126 127 138 93 111 122 343 292 303 263 175 178 183 181 170 150 153 149 125 184 190 190 198 197 169 128 118 147 178 184 183 189 193 190 183 190 210 218 207 197 233 237 236 242 239 217 224 248 234 228 247 234 227 230 222 219 217 214 216 216
101 98 112 110 108 125 130 254 149 135 149 139 109 140 142 135 142 138 106 137 151 265 53 70 69 80 95 109 105 139 145 112 109 141 359 300 313 292 176 179 187 180 163 154 172 162 150 188 189 189 197 192 152 142 156 173 185 186 185 189 190 184 184 197 213 219 206 201 233 234 227 238 241 216 211 226 212 216 235 224 212 213 217 221 216 212 219 220
93 86 94 79 86 133 141 171 157 130 146 148 93 139 149 137 134 123 109 126 110 293 272 84 105 106 81 53 47 128 144 139 155 177 155 110 345 317 171 172 198 188 166 161 186 180 173 187 181 181 192 187 162 160 171 176 180 188 192 192 190 189 192 200 210 217 214 213 233 239 235 241 244 227 216 215 198 214 228 192 177 201 214 215 210 215 221 221
103 127 134 83 90 129 138 150 136 127 151 147 105 168 151 130 135 118 89 133 119 116 301 83 110 124 100 71 59 81 89 62 90 131 154 136 47 343 141 102 286 204 173 167 182 203 205 183 163 166 186 192 177 175 176 175 179 190 195 194 193 193 198 207 214 217 215 219 232 239 244 249 248 226 205 205 201 212 216 186 198 214 214 205 205 221 225 222
96 135 125 109 109 116 129 140 121 131 156 142 138 174 144 137 154 134 103 81 102 119 137 109 107 106 90 83 66 78 87 60 73 87 93 112 103 68 75 20 356 226 179 169 169 187 194 172 145 155 182 199 192 186 180 175 181 191 194 193 193 195 201 208 213 215 209 213 228 237 244 251 245 178 179 195 192 207 218 210 210 218 212 201 205 219 223 220
49 100 100 103 104 101 134 142 116 138 168 173 150 138 128 153 157 128 99 18 53 115 142 125 110 91 68 76 35 194 162 139 132 123 104 113 123 136 154 77 13 350 188 172 168 180 183 169 150 162 188 202 193 181 166 158 175 197 197 193 193 199 206 208 215 221 214 207 218 227 233 236 202 154 189 192 183 204 217 210 207 214 211 205 208 216 221 221